Weather History for PHOG - February, 2013

Change the Weather History Date:

Monday, February 25, 2013

  Actual Average Record
Temperature  
Mean Temperature 74 °F 72 °F  
Max Temperature 80 °F 81 °F 88 °F (1952)
Min Temperature 67 °F 63 °F 56 °F (1971)
Degree Days  
Heating Degree Days 0 0  
Month to date heating degree days 0 0  
Since 1 July heating degree days 0 0  
Cooling Degree Days 9 7  
Month to date cooling degree days 177 175  
Year to date cooling degree days 408 392  
Growing Degree Days 22 (Base 50)    
Moisture  
Dew Point 64 °F    
Average Humidity 74    
Maximum Humidity 87    
Minimum Humidity 60    
Precipitation  
Precipitation 0.01 in 0.07 in 2.71 in (1990)
Month to date precipitation 2.94 1.69  
Year to date precipitation 4.93 4.56  
Snow  
Snow 0.00 in - - ()
Month to date snowfall 0.0  
Since 1 July snowfall 0.0  
Snow Depth 0.00 in    
Sea Level Pressure  
Sea Level Pressure 30.12 in    
Wind  
Wind Speed 15 mph (NE)    
Max Wind Speed 28 mph    
Max Gust Speed 33 mph    
Visibility 10 miles    
Events      
T = Trace of Precipitation, MM = Missing Value Source: NWS Daily Summary

Daily Weather History Graph

Daily Weather History Graph

Search for Another Location

Airport or City:

Trip Planner

Search our weather history database for the weather conditions in past years. The results will help you decide how hot, cold, wet, or windy it might be!

Date:

Astronomy

Feb. 25, 2013 Rise Set
Actual Time 6:48 AM HST 6:28 PM HST
Civil Twilight 6:26 AM HST 6:51 PM HST
Nautical Twilight 6:00 AM HST 7:17 PM HST
Astronomical Twilight 5:34 AM HST 7:42 PM HST
Moon 6:43 PM HST (2/25) 6:31 AM HST (2/25)
Length of Visible Light 12h 24m
Length of Day
11h 40m
Full, 100% of the Moon is Illuminated
Feb 25
Full
Mar 4
Last Quarter
Mar 11
New
Mar 19
First Quarter
Mar 26
Full

Hourly Weather History & Observations

Time (HST) Temp. Dew Point Humidity Pressure Visibility Wind Dir Wind Speed Gust Speed Precip Events Conditions
12:54 AM 69.1 °F 63.0 °F 81% 30.14 in 10.0 mi NE 10.4 mph - 0.00 in   Scattered Clouds
1:54 AM 69.1 °F 63.0 °F 81% 30.12 in 10.0 mi NE 13.8 mph - 0.00 in   Clear
2:54 AM 70.0 °F 63.0 °F 78% 30.10 in 10.0 mi NE 12.7 mph - N/A   Clear
3:54 AM 70.0 °F 63.0 °F 78% 30.09 in 10.0 mi ENE 11.5 mph - N/A   Scattered Clouds
4:54 AM 68.0 °F 64.0 °F 87% 30.09 in 10.0 mi NE 9.2 mph - 0.01 in   Mostly Cloudy
5:54 AM 68.0 °F 62.1 °F 81% 30.10 in 10.0 mi NE 10.4 mph - N/A   Clear
6:54 AM 69.1 °F 62.1 °F 78% 30.12 in 10.0 mi NE 9.2 mph - N/A   Partly Cloudy
7:54 AM 70.0 °F 63.0 °F 78% 30.13 in 10.0 mi NE 10.4 mph - N/A   Partly Cloudy
8:54 AM 73.0 °F 63.0 °F 71% 30.14 in 10.0 mi NE 16.1 mph - N/A   Partly Cloudy
9:54 AM 75.0 °F 64.0 °F 69% 30.15 in 10.0 mi NE 19.6 mph 25.3 mph N/A   Partly Cloudy
10:54 AM 77.0 °F 63.0 °F 62% 30.15 in 10.0 mi ENE 18.4 mph 26.5 mph N/A   Scattered Clouds
11:54 AM 78.1 °F 64.0 °F 62% 30.13 in 10.0 mi NE 25.3 mph 32.2 mph N/A   Partly Cloudy
12:54 PM 79.0 °F 64.9 °F 62% 30.11 in 10.0 mi NE 24.2 mph 32.2 mph N/A   Scattered Clouds
1:54 PM 79.0 °F 64.9 °F 62% 30.08 in 10.0 mi NE 20.7 mph 29.9 mph N/A   Scattered Clouds
2:54 PM 77.0 °F 64.9 °F 66% 30.07 in 10.0 mi ENE 17.3 mph 27.6 mph N/A   Scattered Clouds
3:54 PM 77.0 °F 64.9 °F 66% 30.07 in 10.0 mi ENE 18.4 mph 32.2 mph N/A   Scattered Clouds
4:54 PM 75.0 °F 64.0 °F 69% 30.07 in 10.0 mi ENE 19.6 mph 24.2 mph N/A   Scattered Clouds
5:54 PM 73.0 °F 66.0 °F 79% 30.09 in 10.0 mi NE 17.3 mph 24.2 mph N/A   Scattered Clouds
6:54 PM 72.0 °F 64.9 °F 78% 30.12 in 10.0 mi NE 16.1 mph 21.9 mph N/A   Scattered Clouds
7:54 PM 72.0 °F 64.9 °F 78% 30.15 in 10.0 mi NE 13.8 mph - 0.00 in   Scattered Clouds
8:54 PM 71.1 °F 64.0 °F 78% 30.17 in 10.0 mi NE 11.5 mph 18.4 mph N/A   Clear
9:54 PM 71.1 °F 64.0 °F 78% 30.19 in 10.0 mi NE 16.1 mph - N/A   Partly Cloudy
10:54 PM 71.1 °F 64.0 °F 78% 30.19 in 10.0 mi ENE 11.5 mph - 0.00 in   Scattered Clouds
11:54 PM 70.0 °F 63.0 °F 78% 30.18 in 10.0 mi ENE 11.5 mph 19.6 mph N/A   Clear